SES-11 (ECHOSTAR 105)

Last updated on Tue Sep 15 2026 00:03:11 GMT+0000 (Coordinated Universal Time)

1 42967U 17063A 26257.55434413 -.00000097 00000+0 00000+0 0 9991 2 42967 0.0453 316.6822 0002696 196.7956 294.6671 1.00272133 32612
UTC large
Height (km)
Speed (km/s)
/
Latitude / Longitude
Inclination (degrees)
Orbital Period (minutes)
Azimuth
Elevation
Range (km)
Doppler Factor

Next 0 passes for location: London (51.5072 / 0.1276)

No passes found over London.
SES-11 (ECHOSTAR 105)